Location: Anan
(43.3550°N, 0.8171°E)
Time: 11:21:24
(UTC+00:00)

Helios 1B rocket - Pass Details

Date: 14 May 2026
Orbit: 459 x 465 km, 98.2° (Epoch: 8 June)

Event Time Altitude Azimuth Distance (km) Brightness Sun altitude
Exits shadow 21:57:45 19° 54° (NE) 1,199 4.1 -22.4°
Drops below altitude 10° 21:59:46 10° 20° (NNE) 1,639 5.2 -22.6°
Sets 22:02:13 0° 2° (N) 2,520 6.7 -22.8°
